Location: Liverpool
(53.4084°N, 2.9916°W)
Time: 12:46:13
(UTC+00:00)

X-37B - Visible Passes

Search period start: 08 March 2021 00:00
Search period end: 18 March 2021 00:00
Orbit: 383 x 391 km, 45.0° (Epoch: 27 February)

Date Brightness Start Highest point End Pass type
(mag) Time Alt. Az. Time Alt. Az. Time Alt. Az.
14 Mar 2.7 19:34:32 10° SSW 19:36:18 14° SSE 19:36:45 14° SSE visible
15 Mar 2.7 20:11:45 10° SW 20:13:28 17° S 20:13:28 17° S visible
16 Mar 2.7 19:13:47 10° SSW 19:15:55 17° S 19:17:49 11° SE visible
16 Mar 3.4 20:49:38 10° SW 20:50:06 12° SW 20:50:06 12° SW visible
17 Mar 2.5 19:51:23 10° SW 19:53:43 19° S 19:54:25 17° SSE visible
